Weather past 2 weeks in Saint-Pierre, Saint Pierre and Miquelon

Now
67 °F

Light snow. Dense fog.


Feels Like: 67 °F
Forecast: 63 / 66 °F
Wind: 10 mph from Southwest

Location: Saint-Pierre

Current Time: Aug 2, 2014 at 12:55:07 AM

Latest Report: Aug 2, 2014 at 12:00 AM


Visibility: 0 mi

Pressure: 30.23 "Hg

Humidity: 100%

Dew point: 67 °F

Location of Saint-PierreLocation

Historic Weather in Saint-Pierre — Graph

°F

Saint-Pierre temperature yesterday

Maximum temperature yesterday: 69 °F (at 5:00 PM)
Minimum temperature yesterday: 65 °F (at 12:00 AM)
Average temperature yesterday: 67 °F

Past Weeks' High & Low Weather Summary

 TemperatureHumidityPressure
High74 °F (Jul 20, 4:00 PM)100% (Jul 18, 12:00 AM)30.32 "Hg (Jul 18, 12:00 AM)
Low54 °F (Jul 21, 6:00 AM)42% (Jul 20, 5:00 PM)29.70 "Hg (Jul 26, 12:00 AM)
Average64 °F89%30.06 "Hg
* Reported Midnight between Jul 17 and Jul 18 — Midnight between Aug 1 and Aug 2, Saint-Pierre, Weather by CustomWeather, © 2014

Note: Actual official high and low records may vary slightly from our data, if they occured in-between our weather recording intervals... More about our weather records

Advertising

Saint-Pierre weather history for previous 24 hours

 ConditionsComfort  
Time TempWeatherWind HumidityBarometerVisibility
12:00 AM
Aug 2
67 °FLight snow. Dense fog.10 mph100%30.23 "Hg0 mi
11:00 PM
Aug 1
67 °FLight snow. Dense fog.13 mph100%30.24 "Hg0 mi
10:00 PM67 °FHeavy rain. Low clouds.14 mph100%30.24 "Hg1 mi
9:00 PM67 °FHeavy rain. Low clouds.15 mph100%30.24 "Hg1 mi
8:00 PM67 °FFog.15 mph100%30.24 "Hg1 mi
6:00 PM68 °FSprinkles. Low clouds.16 mph100%30.26 "Hg1 mi
5:00 PM69 °FDense fog.14 mph100%30.27 "Hg1 mi
4:00 PM68 °FFog.13 mph100%30.27 "Hg1 mi
3:00 PM67 °FLight rain. Low clouds.12 mph100%30.28 "Hg1 mi
2:00 PM66 °FRain showers. Low clouds.9 mph100%30.29 "Hg1 mi
11:00 AM67 °FLight rain. Low clouds.7 mph100%30.32 "Hg5 mi
10:00 AM66 °FFog.7 mph100%30.31 "Hg1 mi
4:00 AM65 °FLight snow. Dense fog.7 mph100%30.30 "Hg0 mi
3:00 AM65 °FLight snow. Dense fog.10 mph100%30.30 "Hg0 mi
2:00 AM65 °FLight snow. Dense fog.9 mph100%30.32 "Hg0 mi
12:00 AM65 °FFog.12 mph100%30.32 "Hg1 mi
Weather by CustomWeather, © 2014

See weather overviewHow to use our weather pages